Location: ?
(35.4554°N, 139.3092°E)
Time: 21:25:46
(UTC+00:00)

CZ-2D R/B - Pass Details

Date: 21 April 2021
Orbit: 792 x 844 km, 98.7° (Epoch: 10 May)

Event Time Altitude Azimuth Distance (km) Brightness Sun altitude
Rises 16:22:55 0° 11° (N) 3,409 6.2 -36.7°
Reaches altitude 10° 16:25:18 10° 10° (N) 2,469 5.3 -36.5°
Enters shadow 16:28:11 32° 5° (N) 1,400 3.6 -36.2°
